Volver al catálogo

COSMOS 1275 DEB

ActivoPO
NORAD 39957·DEBRIS·🇷🇺 Russia

Lanzado Jun 4, 1981 desde Plesetsk Cosmodrome

Loading…

Próximos Pases (próximas 24 horas)

TLE

ActualizadoSource: Space-Track

Época: Sep 12, 2026, 10:40 UTC

1 39957U 81053NT  26255.44484003  .00000076  00000-0  63741-4 0  9995
2 39957  82.9285 150.6011 0038786  68.2219  56.8420 13.74690946615638

Sigue COSMOS 1275 DEB en tiempo real con AllMySat

Download on the App Store